Temperature
23 22 21 21 20 21 22 24 25 25 25 25 24 24 23 22 21 20 20 20 21 21 20 20 20 20 20 20 19 19 19 19 19 19 19 19 19 19 19 19 19 19 19 19 19 19 19 18 18
23 22 21 21 21 21 23 25 25 25 25 25 24 23 23 21 21 20 20 20 21 21 21 20 20 20 20 19 19 19 19 19 19 19 19 19 19 19 19 19 19 19 19 19 19 19 18 18 18
22 22 21 20 22 22 24 25 25 26 26 25 24 24 23 21 21 20 21 21 21 21 21 20 20 20 20 20 19 19 19 19 19 19 19 19 19 19 19 19 19 19 19 19 19 19 18 18 18
22 22 22 21 23 24 25 25 26 26 25 24 24 23 22 22 21 21 21 21 21 21 21 20 20 20 20 20 19 20 19 19 19 19 19 19 19 19 19 19 19 19 19 19 19 19 18 18 18
23 22 22 22 24 25 26 26 26 25 25 24 23 22 22 22 22 21 21 21 21 21 21 20 20 20 20 20 20 19 19 19 19 19 19 19 19 19 19 19 19 19 19 19 19 19 18 18 18
23 22 22 23 25 26 27 27 26 25 24 23 23 22 22 22 21 21 21 21 21 21 21 20 20 20 20 20 20 19 19 20 19 19 19 19 19 19 19 19 19 19 19 19 19 19 18 18 18
23 22 23 24 25 26 27 27 26 25 24 24 23 22 22 21 22 21 21 21 21 21 21 20 20 20 20 20 20 19 19 20 20 19 19 19 19 19 19 19 19 19 19 19 19 19 19 18 18
25 23 24 24 25 26 27 27 26 26 25 24 24 22 22 22 22 21 21 21 21 21 21 21 20 20 20 20 20 19 19 19 19 19 19 19 19 19 19 19 19 19 19 19 19 19 19 18 18
26 23 23 25 26 26 27 27 26 26 25 25 24 23 23 22 22 21 21 21 21 21 21 21 20 20 20 20 20 19 19 19 19 19 19 19 19 19 19 19 19 19 19 19 19 19 19 18 18
26 23 25 27 27 27 27 27 26 25 24 24 24 23 23 22 22 21 21 21 21 21 20 20 20 20 20 20 20 19 19 19 19 19 19 19 19 19 19 19 19 19 19 19 19 19 19 19 18
26 26 27 28 29 28 27 27 27 25 23 24 23 23 23 22 22 22 21 21 21 21 20 20 20 20 20 20 20 19 19 19 19 19 19 19 19 19 19 19 19 19 19 19 19 19 19 19 18
27 28 28 28 29 28 28 27 26 25 25 25 24 23 23 23 22 22 22 21 21 21 20 20 20 20 20 20 20 19 19 19 19 19 19 19 19 19 19 19 19 19 19 19 19 19 19 19 19
27 28 29 29 29 29 28 27 27 26 25 25 24 23 23 23 22 22 22 22 21 21 21 20 20 20 20 20 20 19 19 19 19 19 19 19 19 19 19 19 19 19 19 19 19 19 19 19 19
27 28 28 29 29 29 28 27 26 25 25 24 24 24 23 23 23 22 22 22 21 21 21 20 20 20 20 20 20 20 19 19 19 19 19 19 19 19 19 19 19 19 19 19 19 19 19 19 19
28 27 27 28 28 28 28 26 26 26 25 24 24 24 24 23 23 23 22 22 22 21 21 21 21 20 20 20 20 20 20 19 19 19 19 19 19 19 19 19 19 19 19 19 19 19 19 19 19
27 26 26 27 28 28 27 25 26 26 25 25 24 24 24 23 23 23 23 22 22 22 21 21 21 20 20 20 20 20 19 19 19 19 19 19 19 19 19 19 19 19 19 19 19 19 19 19 19
25 25 26 27 28 28 26 25 26 26 25 25 24 24 24 23 23 23 23 22 22 22 21 21 21 20 20 20 20 20 19 19 19 19 19 19 19 19 19 19 19 19 19 19 19 19 19 19 19
25 25 26 26 28 28 26 25 26 26 26 25 25 24 24 23 23 23 23 23 22 22 22 21 21 21 20 20 20 20 19 19 19 19 19 19 19 19 19 19 19 19 19 19 19 19 19 19 19
26 26 26 27 28 27 26 25 25 26 25 25 24 24 24 24 23 23 23 23 22 22 22 21 21 21 20 20 20 20 20 20 19 19 19 19 19 19 19 19 19 19 19 19 19 19 19 19 19
27 26 26 27 28 27 25 25 25 25 25 25 25 24 24 24 23 23 23 23 22 22 22 21 21 21 21 21 20 20 20 20 20 19 19 19 19 19 19 19 19 19 19 19 19 19 19 19 19
27 26 27 27 27 26 26 25 24 25 25 26 25 25 24 24 23 23 23 23 23 22 22 22 21 21 21 21 20 20 20 20 19 19 19 19 19 19 19 19 19 19 19 19 19 19 19 19 19
26 28 28 27 25 24 25 23 23 24 24 25 25 25 24 24 24 23 23 23 23 23 22 22 22 21 21 21 21 20 20 20 20 20 19 19 19 19 19 19 19 19 19 19 19 19 19 19 19
27 28 28 27 25 23 23 23 23 23 23 24 24 25 25 24 24 24 23 23 23 23 22 22 22 21 21 21 20 20 20 20 20 20 19 19 19 19 19 19 19 19 19 19 19 19 19 19 19
28 27 25 23 22 22 23 23 23 22 23 24 24 25 25 24 24 24 24 23 23 23 22 22 22 22 21 21 20 20 20 20 20 20 19 19 19 19 19 19 19 19 19 19 19 19 19 19 19
26 23 22 23 21 22 22 23 22 24 25 25 24 25 25 25 24 24 23 23 23 23 22 22 22 21 21 21 21 20 20 20 20 20 19 19 19 19 19 19 19 19 19 19 19 19 19 19 18
26 23 22 23 22 22 23 23 24 25 25 26 25 25 25 25 24 24 24 24 23 23 23 22 22 22 21 21 21 20 20 20 20 20 20 19 19 19 19 19 19 19 19 19 19 19 19 18 18
26 24 23 22 22 22 22 23 24 25 24 24 25 25 25 25 24 24 24 24 24 23 23 23 22 22 22 21 21 20 20 20 20 20 20 19 19 19 19 19 19 19 19 19 19 19 18 18 18
26 25 21 21 22 22 23 23 22 24 23 23 23 24 24 24 24 24 24 24 24 23 23 23 22 22 22 21 21 21 20 20 20 20 20 19 19 19 19 19 19 19 19 19 19 18 18 18 18
26 25 22 20 21 21 22 22 24 23 23 23 23 24 24 24 24 24 24 24 23 23 23 23 22 22 21 21 21 20 20 20 20 20 19 19 19 19 19 19 19 19 19 19 18 18 18 18 18
26 25 22 22 21 20 21 22 24 23 23 23 23 23 23 24 24 24 23 23 23 23 23 22 22 22 21 21 21 20 20 20 20 19 19 19 19 19 19 19 19 19 18 18 18 18 18 18 18
Wind_Speed
10 7 3 1 2 4 3 1 3 5 6 8 11 11 10 8 5 6 3 8 9 7 6 10 11 11 12 12 12 13 12 12 13 14 14 15 16 17 17 17 18 19 18 18 18 19 19 19 19
6 4 2 1 4 3 2 3 7 8 9 11 11 11 10 8 7 8 5 8 9 8 8 10 12 12 12 12 12 13 13 13 14 14 14 15 16 17 18 18 18 19 19 18 18 18 19 19 19
4 3 0 2 2 3 3 4 8 9 9 8 6 7 6 6 7 6 8 11 9 7 8 11 13 12 13 12 12 13 13 13 13 14 14 15 16 17 18 18 19 19 19 19 18 18 18 18 18
2 1 2 3 2 2 5 5 8 10 9 8 8 7 5 5 6 9 12 12 10 7 8 11 13 13 13 12 12 13 14 13 14 14 14 15 16 17 18 18 18 18 19 18 17 17 17 16 16
1 2 3 2 2 3 5 8 9 8 5 8 11 8 5 4 13 15 13 12 11 7 7 11 13 13 13 12 12 13 13 14 14 14 14 15 16 17 17 18 18 18 18 17 16 16 15 14 14
1 2 3 2 3 3 5 8 9 11 11 11 11 9 4 7 13 13 12 11 10 9 7 10 13 13 13 12 12 12 12 13 13 14 14 15 16 17 16 17 16 16 16 16 14 13 13 12 12
2 1 2 3 4 5 7 8 9 11 10 8 9 8 5 6 10 12 12 11 9 8 7 7 9 11 12 12 12 11 11 12 13 13 14 14 15 15 15 16 15 14 14 13 12 12 11 11 10
4 2 1 2 5 5 7 6 8 11 8 10 8 8 7 8 10 12 11 9 8 7 6 5 6 7 8 9 11 11 11 11 12 13 13 14 14 14 14 13 13 13 12 11 10 10 9 9 8
3 2 2 3 5 5 8 9 6 7 9 6 6 8 10 13 14 12 10 8 7 7 5 5 5 6 7 8 9 10 10 11 11 11 13 12 9 9 10 11 11 11 10 9 9 8 8 7 6
5 3 4 4 6 7 9 10 8 7 10 8 10 10 13 14 14 13 11 9 7 7 5 4 5 5 6 7 7 6 7 7 7 7 7 7 7 7 8 10 10 9 9 8 7 7 6 4 3
5 5 3 2 6 9 8 8 7 11 8 11 15 15 13 13 12 11 10 9 9 8 7 5 5 5 5 4 5 4 5 5 5 6 6 6 5 5 5 5 5 5 6 5 5 4 3 3 3
2 3 4 3 4 8 9 8 7 9 10 14 17 16 14 13 12 11 10 9 8 8 7 6 5 5 5 5 4 4 4 3 3 5 7 6 4 3 3 3 3 3 3 3 2 2 3 3 3
3 0 2 4 6 8 9 8 9 9 13 15 16 14 13 12 10 9 9 9 9 8 7 6 6 6 5 5 3 4 4 4 5 5 6 6 4 3 2 2 3 3 3 3 3 2 2 3 3
1 0 1 4 6 6 10 8 8 10 15 16 16 13 12 12 11 9 9 9 8 8 8 7 7 6 6 4 4 3 4 4 5 5 6 6 5 3 3 2 2 2 3 4 4 4 3 2 3
3 3 2 1 4 4 9 5 8 14 15 15 14 13 11 10 11 12 11 10 9 9 7 7 7 6 6 5 4 4 3 4 3 4 5 6 5 4 3 2 2 2 3 3 3 2 2 2 2
4 4 1 3 3 3 7 5 7 13 15 14 13 13 11 10 11 12 11 9 9 9 8 7 7 6 5 5 4 3 3 3 3 4 4 5 5 5 3 2 2 3 3 3 3 2 2 1 1
3 1 3 4 4 3 4 5 8 12 15 14 13 13 12 11 10 10 11 11 10 10 9 7 6 6 5 5 4 3 3 3 3 4 4 5 5 5 3 2 1 2 2 2 3 3 3 2 2
4 3 3 5 4 3 4 3 7 11 13 14 13 13 13 13 12 11 11 11 10 9 8 8 7 6 5 4 3 2 2 1 2 2 3 4 4 4 4 2 2 2 2 2 2 2 2 2 2
4 3 6 7 3 3 3 4 7 10 11 11 11 12 13 13 11 11 11 11 10 8 8 8 7 6 5 3 3 3 2 1 1 2 3 4 4 4 3 2 2 2 2 2 3 2 2 1 1
5 3 5 5 1 3 3 3 5 8 11 13 13 13 13 11 10 11 10 10 10 10 9 9 8 7 6 4 3 3 2 2 2 1 2 3 4 4 4 3 2 2 2 2 2 2 2 1 2
4 4 5 4 1 3 4 1 3 3 4 6 9 11 13 15 15 13 12 11 10 10 11 10 9 7 7 5 3 2 2 2 1 0 1 1 3 3 3 3 3 2 2 2 2 3 3 2 1
5 6 4 2 2 1 2 1 7 4 3 6 7 9 12 13 13 13 13 12 12 11 10 9 8 8 7 6 5 5 4 3 2 2 2 1 2 3 3 3 3 2 2 2 2 2 2 3 1
6 4 1 2 3 2 2 2 7 1 4 7 8 11 12 12 14 14 14 14 12 11 10 9 8 7 6 6 6 5 4 3 2 2 2 1 1 2 2 3 3 2 2 2 1 1 2 2 2
3 3 6 5 5 1 4 4 6 5 8 7 8 10 11 12 12 12 12 11 10 10 9 9 9 8 7 7 6 6 5 4 4 3 2 2 1 1 1 2 2 2 2 2 2 2 2 2 2
3 5 4 5 4 4 4 2 7 7 8 9 10 11 12 12 12 12 12 12 11 11 11 9 9 8 7 7 6 6 5 5 5 4 4 3 2 1 2 2 2 1 2 2 2 2 1 1 2
4 8 7 4 4 4 3 3 6 5 3 5 8 9 10 11 11 12 13 14 13 13 11 10 10 9 8 8 7 6 6 5 4 4 4 4 3 3 2 2 2 2 2 2 2 2 1 1 1
3 4 8 7 2 0 3 4 5 3 3 4 5 7 8 10 10 11 11 12 12 12 12 12 11 9 9 9 7 5 6 5 5 5 4 3 3 3 2 3 3 2 2 2 2 1 1 1 1
5 6 6 5 4 2 3 3 4 3 1 3 4 5 6 8 9 9 10 11 10 10 10 10 10 10 9 9 8 7 6 6 5 5 4 4 3 3 3 3 3 3 2 2 2 1 1 1 1
1 3 4 4 6 6 3 6 6 8 6 5 4 3 5 7 9 9 8 9 10 9 9 10 9 9 8 8 6 6 5 5 5 4 5 4 4 4 4 3 3 3 3 3 2 2 2 2 2
5 4 6 4 3 5 5 6 4 5 5 6 6 5 5 6 7 8 8 8 7 7 8 8 8 8 8 7 6 5 4 4 4 4 4 4 4 3 3 3 3 3 3 3 3 3 2 3 3
Wind_Direction
173 167 167 208 50 53 74 70 94 76 63 67 74 82 80 67 94 128 158 142 134 135 131 120 112 106 102 99 96 93 92 92 96 101 104 106 113 118 121 123 123 121 120 120 122 126 128 127 128
167 172 196 41 71 75 65 108 87 87 115 104 83 84 79 72 90 118 132 142 137 134 128 121 116 110 104 100 99 97 95 94 96 101 104 107 111 115 119 121 121 119 118 119 120 124 125 123 124
185 204 131 51 80 136 137 120 108 102 103 95 87 69 76 104 112 130 150 142 129 126 127 125 118 112 107 103 100 100 99 98 100 102 105 109 113 116 118 121 121 120 120 120 121 123 123 123 123
173 130 34 60 91 153 141 134 108 99 81 78 96 75 69 109 123 133 136 134 126 125 132 130 121 116 112 107 102 102 102 102 103 106 107 112 117 119 120 121 121 121 122 123 123 124 125 125 125
141 81 42 37 85 110 123 120 117 104 89 98 101 100 87 85 120 129 134 135 133 132 134 132 123 121 117 113 107 106 107 107 109 111 110 112 117 120 121 122 123 124 125 127 127 126 128 130 129
48 79 71 66 99 106 117 117 102 97 105 109 109 109 112 127 130 138 139 138 136 137 140 133 129 126 122 118 114 111 111 110 111 115 116 117 119 120 122 126 126 127 128 129 131 131 134 136 135
128 105 158 137 112 108 119 114 106 114 119 122 126 109 127 140 145 142 137 134 132 135 137 138 140 134 128 125 122 118 114 112 114 121 123 121 123 125 126 129 128 130 131 133 136 138 139 141 140
170 128 127 128 123 117 122 104 116 119 114 125 121 124 150 161 139 131 126 126 127 129 136 140 141 140 137 133 130 128 122 118 118 124 127 126 126 128 128 129 133 136 138 140 144 145 145 145 146
143 84 164 171 140 137 127 109 105 98 106 110 106 126 145 141 131 127 120 119 127 132 141 144 144 146 145 140 136 135 131 128 124 124 124 124 124 131 136 138 141 144 148 151 153 155 155 154 160
142 153 196 186 155 140 131 130 128 105 102 98 100 112 129 133 135 134 136 141 145 150 154 154 147 151 154 146 142 142 136 135 132 133 131 131 132 138 141 145 153 156 160 163 168 172 169 169 172
150 167 174 151 151 134 125 127 126 124 128 141 140 142 141 137 138 141 144 147 153 155 153 155 150 147 146 140 144 145 140 138 135 139 138 137 131 133 134 140 153 163 170 177 182 188 189 184 176
140 191 172 168 147 131 135 131 125 134 157 155 148 148 145 145 147 150 148 148 150 147 148 150 145 134 137 139 141 144 141 143 141 148 144 137 129 130 144 151 164 173 181 187 184 182 193 190 183
98 114 154 159 146 143 135 130 126 132 141 144 143 145 149 151 152 151 146 143 139 136 138 141 133 132 134 135 145 140 147 156 158 146 144 139 139 147 161 169 176 184 179 174 170 180 181 178 173
158 337 158 145 139 137 129 128 118 143 142 143 148 153 157 156 153 145 142 142 141 141 144 143 136 136 131 131 133 135 148 151 142 146 152 151 151 150 150 153 166 171 176 167 166 175 171 171 162
42 33 28 123 125 139 120 115 148 154 148 150 155 157 157 157 151 153 156 154 150 149 148 147 144 138 135 134 138 132 148 151 141 155 155 153 154 160 148 140 158 184 169 155 147 149 145 166 167
25 34 4 257 153 160 122 165 178 160 154 156 161 160 157 158 158 157 157 154 151 149 149 156 147 139 139 141 140 134 147 148 152 160 157 159 158 155 141 146 181 187 162 151 143 136 144 164 175
25 282 256 270 203 153 131 176 181 167 160 162 165 164 162 159 160 160 159 156 154 155 154 155 145 144 145 140 138 134 133 140 155 157 160 165 159 153 142 147 169 156 141 140 157 151 158 170 188
252 247 261 252 230 130 121 171 175 173 165 167 167 166 165 166 171 167 162 159 156 156 154 152 149 152 145 133 119 110 106 130 150 158 165 161 162 155 145 145 154 140 125 127 142 153 158 176 185
232 256 262 260 219 132 151 166 185 180 167 168 169 169 172 175 172 165 164 161 156 154 152 153 152 158 149 141 142 138 159 170 181 186 177 172 167 158 147 142 146 145 147 164 163 156 153 170 146
235 255 273 287 265 132 149 198 204 186 184 179 177 177 177 169 167 171 168 166 165 165 162 160 163 164 163 162 165 162 158 174 181 187 166 169 161 160 158 149 158 157 149 148 157 151 155 183 149
265 219 237 234 13 55 100 332 250 221 181 176 176 176 178 175 174 174 173 173 170 172 173 171 170 167 167 159 142 126 87 53 62 112 173 183 160 159 152 148 155 156 158 178 189 166 162 183 235
251 242 234 192 101 311 103 247 271 225 206 187 186 185 184 182 177 177 176 176 177 178 174 168 167 166 166 158 154 154 159 172 198 185 179 191 168 161 162 151 156 150 153 170 187 157 155 152 193
223 234 128 122 119 51 7 145 279 222 207 209 198 192 189 182 180 179 179 178 176 173 167 164 159 162 164 163 168 166 171 183 180 152 147 168 170 167 162 152 150 144 151 161 156 136 147 161 165
179 56 37 51 73 23 245 176 259 223 207 204 197 189 185 180 178 178 178 172 171 171 168 164 160 167 169 167 168 170 173 173 161 160 162 174 171 174 156 148 143 146 149 157 166 164 156 163 160
88 86 31 0 10 255 254 191 245 238 205 194 190 189 186 177 173 173 173 173 174 174 172 168 167 172 174 168 171 172 169 167 168 170 173 170 167 189 206 173 158 155 160 162 161 159 167 173 171
212 141 160 191 216 273 312 238 260 265 197 177 181 176 176 174 173 175 178 177 178 177 172 169 171 174 175 176 180 178 172 173 177 175 172 177 189 200 199 184 179 176 175 174 164 164 190 161 175
183 176 169 144 165 221 289 295 320 13 71 108 140 148 161 168 168 169 171 173 175 173 174 175 174 176 179 182 180 181 179 177 176 178 177 184 196 199 196 190 188 186 178 177 169 172 200 179 183
154 157 99 118 147 220 290 274 237 249 126 102 113 141 156 159 159 160 166 169 170 173 174 173 173 179 183 184 185 188 188 185 180 178 183 187 195 198 184 187 190 195 192 186 170 175 193 175 216
55 87 103 121 149 155 209 262 228 199 175 152 140 121 144 154 158 155 157 160 161 164 165 169 173 176 182 187 188 188 189 190 183 187 196 194 193 192 196 197 191 191 191 187 177 195 187 191 225
175 162 135 143 211 165 169 261 271 167 142 137 126 117 112 129 141 151 152 147 154 164 167 170 173 176 184 184 178 181 184 189 192 199 203 196 196 199 201 195 189 187 189 191 193 209 209 206 222
Height
1499 1498 1498 1499 1501 1508 1508 1499 1492 1490 1491 1492 1491 1492 1496 1500 1505 1513 1510 1509 1509 1508 1507 1507 1505 1505 1503 1502 1500 1499 1497 1496 1494 1493 1493 1492 1492 1494 1496 1498 1500 1502 1504 1506 1507 1509 1512 1514 1517
1499 1498 1499 1500 1506 1518 1511 1497 1493 1492 1492 1492 1494 1495 1498 1503 1504 1507 1508 1510 1509 1509 1508 1508 1507 1506 1505 1503 1502 1500 1499 1498 1496 1496 1495 1494 1495 1496 1498 1500 1502 1505 1507 1509 1511 1513 1515 1517 1519
1499 1499 1501 1502 1508 1513 1507 1496 1492 1492 1491 1491 1495 1498 1501 1505 1507 1508 1509 1510 1510 1510 1510 1509 1509 1508 1506 1505 1504 1502 1501 1500 1498 1498 1497 1497 1497 1499 1500 1503 1505 1507 1510 1512 1514 1516 1518 1520 1522
1500 1501 1502 1506 1508 1500 1496 1493 1491 1492 1493 1494 1496 1500 1504 1507 1507 1508 1509 1511 1511 1511 1511 1511 1510 1509 1508 1507 1506 1504 1503 1502 1501 1500 1499 1499 1500 1501 1503 1505 1508 1510 1513 1515 1517 1519 1521 1523 1525
1501 1502 1506 1510 1504 1495 1491 1491 1491 1492 1494 1496 1497 1502 1506 1508 1509 1510 1511 1512 1512 1512 1512 1512 1512 1511 1511 1509 1508 1507 1505 1504 1503 1502 1502 1502 1503 1505 1507 1509 1511 1514 1516 1518 1520 1522 1524 1526 1528
1501 1502 1513 1515 1503 1495 1492 1491 1492 1494 1496 1498 1499 1503 1509 1510 1510 1511 1512 1513 1514 1513 1514 1514 1514 1513 1512 1511 1511 1509 1508 1506 1504 1504 1505 1506 1507 1509 1510 1512 1515 1517 1519 1521 1523 1525 1527 1529 1530
1503 1505 1510 1508 1503 1498 1493 1492 1493 1495 1497 1499 1500 1504 1509 1511 1512 1513 1514 1514 1515 1515 1515 1515 1515 1515 1514 1513 1513 1512 1510 1508 1506 1506 1507 1509 1511 1512 1514 1516 1518 1520 1522 1524 1526 1528 1529 1531 1532
1500 1504 1507 1505 1503 1500 1494 1493 1494 1495 1498 1500 1501 1504 1508 1511 1513 1514 1515 1516 1516 1517 1516 1516 1516 1516 1516 1515 1515 1514 1513 1511 1509 1509 1510 1512 1514 1516 1518 1520 1521 1523 1525 1526 1528 1530 1531 1533 1534
1499 1506 1511 1503 1500 1498 1493 1494 1497 1497 1499 1501 1502 1503 1507 1511 1513 1515 1516 1517 1517 1518 1518 1517 1517 1517 1517 1517 1517 1517 1516 1515 1514 1514 1515 1516 1518 1520 1521 1523 1524 1526 1527 1529 1530 1532 1533 1534 1536
1496 1506 1501 1492 1491 1492 1493 1494 1497 1500 1501 1503 1504 1507 1509 1511 1513 1515 1516 1517 1517 1518 1519 1518 1517 1517 1518 1519 1519 1519 1519 1519 1519 1519 1519 1521 1522 1523 1524 1525 1526 1528 1529 1530 1532 1533 1535 1536 1537
1492 1496 1492 1490 1489 1491 1492 1494 1496 1499 1503 1503 1504 1507 1510 1512 1514 1515 1516 1517 1518 1519 1519 1519 1519 1519 1519 1520 1521 1521 1521 1522 1522 1522 1523 1524 1524 1525 1526 1527 1528 1529 1531 1532 1533 1534 1535 1536 1537
1490 1489 1489 1490 1490 1491 1492 1494 1497 1497 1500 1502 1503 1506 1509 1512 1514 1515 1516 1517 1518 1519 1520 1520 1520 1521 1522 1522 1523 1523 1524 1524 1524 1525 1525 1526 1526 1527 1528 1529 1530 1531 1532 1533 1534 1535 1536 1537 1538
1491 1490 1489 1489 1489 1490 1491 1493 1496 1498 1500 1503 1506 1508 1510 1512 1514 1516 1517 1518 1519 1519 1520 1521 1522 1522 1523 1524 1524 1525 1525 1526 1526 1527 1527 1528 1528 1528 1529 1530 1531 1531 1532 1533 1534 1535 1536 1537 1538
1491 1490 1489 1489 1489 1490 1491 1494 1496 1500 1501 1504 1506 1509 1511 1512 1514 1516 1517 1518 1519 1520 1521 1522 1523 1523 1524 1525 1525 1526 1527 1527 1528 1528 1528 1529 1529 1530 1530 1530 1531 1531 1532 1533 1534 1535 1536 1537 1538
1491 1492 1492 1489 1489 1491 1493 1499 1498 1499 1501 1504 1506 1509 1511 1513 1514 1515 1516 1518 1519 1520 1521 1522 1523 1524 1525 1525 1526 1527 1528 1529 1529 1529 1530 1530 1530 1530 1530 1531 1531 1531 1532 1533 1534 1535 1536 1537 1538
1493 1498 1504 1493 1489 1491 1497 1508 1498 1499 1501 1504 1506 1509 1511 1513 1514 1515 1517 1518 1519 1520 1521 1522 1523 1524 1525 1526 1527 1528 1529 1529 1530 1530 1530 1531 1531 1531 1531 1531 1531 1532 1532 1533 1534 1535 1536 1537 1538
1504 1511 1507 1497 1488 1490 1496 1503 1497 1498 1500 1502 1505 1508 1510 1512 1514 1515 1516 1517 1518 1519 1521 1522 1523 1524 1525 1526 1528 1528 1529 1530 1530 1531 1531 1532 1532 1532 1532 1531 1532 1532 1533 1533 1534 1535 1535 1536 1537
1512 1510 1506 1501 1490 1490 1497 1499 1496 1497 1499 1501 1503 1506 1509 1510 1512 1514 1516 1517 1518 1519 1520 1521 1523 1524 1525 1527 1528 1529 1530 1530 1531 1531 1532 1532 1532 1532 1532 1532 1532 1532 1533 1533 1534 1534 1535 1536 1536
1500 1503 1505 1496 1487 1492 1498 1500 1497 1496 1498 1500 1502 1505 1507 1509 1511 1513 1515 1517 1518 1519 1520 1521 1522 1524 1525 1526 1527 1528 1529 1530 1531 1531 1532 1532 1532 1532 1532 1532 1532 1532 1533 1533 1534 1534 1535 1535 1536
1496 1503 1501 1492 1486 1492 1499 1500 1496 1495 1495 1497 1499 1502 1505 1507 1510 1512 1514 1515 1516 1518 1519 1520 1522 1523 1525 1526 1527 1529 1530 1531 1531 1532 1532 1532 1532 1532 1532 1532 1532 1532 1533 1533 1533 1534 1534 1535 1535
1495 1499 1498 1497 1492 1493 1499 1507 1501 1496 1496 1497 1499 1500 1502 1504 1506 1509 1511 1513 1515 1516 1518 1519 1521 1523 1524 1526 1528 1529 1530 1531 1531 1531 1531 1532 1532 1532 1532 1532 1532 1532 1532 1532 1533 1533 1533 1533 1534
1499 1487 1488 1492 1502 1512 1507 1526 1508 1499 1497 1496 1497 1498 1500 1502 1504 1506 1508 1511 1512 1514 1517 1519 1521 1523 1524 1526 1527 1528 1528 1529 1530 1531 1531 1531 1531 1531 1532 1532 1532 1532 1532 1532 1532 1532 1532 1532 1533
1488 1481 1485 1492 1502 1513 1512 1522 1513 1499 1500 1495 1494 1495 1497 1499 1501 1503 1506 1508 1511 1513 1516 1518 1520 1522 1524 1525 1526 1527 1528 1529 1530 1530 1531 1531 1531 1531 1531 1531 1531 1531 1531 1531 1531 1531 1531 1531 1532
1480 1485 1492 1501 1511 1527 1516 1520 1517 1502 1495 1492 1491 1492 1494 1496 1499 1501 1504 1507 1510 1512 1514 1516 1518 1520 1522 1524 1525 1526 1527 1528 1529 1529 1530 1530 1530 1531 1531 1531 1530 1530 1530 1530 1530 1530 1531 1531 1531
1483 1503 1524 1528 1536 1532 1513 1515 1511 1489 1483 1485 1487 1489 1491 1494 1496 1500 1503 1505 1508 1510 1512 1514 1517 1519 1521 1522 1524 1525 1526 1527 1527 1528 1529 1529 1529 1530 1530 1530 1530 1530 1530 1529 1529 1529 1529 1529 1529
1486 1499 1524 1536 1538 1530 1515 1515 1498 1482 1479 1481 1483 1485 1488 1491 1494 1497 1499 1502 1505 1508 1511 1513 1515 1517 1519 1520 1522 1523 1525 1526 1526 1527 1528 1528 1528 1529 1529 1529 1529 1529 1529 1529 1528 1528 1528 1528 1528
1485 1493 1496 1515 1523 1530 1523 1508 1493 1481 1481 1481 1482 1485 1488 1490 1493 1495 1498 1501 1503 1506 1508 1511 1513 1515 1517 1518 1520 1522 1523 1524 1525 1526 1527 1527 1528 1528 1528 1528 1528 1528 1528 1528 1527 1527 1527 1527 1526
1475 1483 1500 1514 1530 1537 1525 1515 1508 1491 1486 1483 1483 1484 1486 1488 1491 1494 1497 1499 1502 1504 1507 1509 1511 1513 1515 1517 1518 1520 1521 1523 1524 1525 1525 1526 1526 1527 1527 1527 1527 1527 1526 1526 1526 1525 1525 1525 1525
1481 1486 1496 1510 1515 1531 1536 1520 1486 1484 1482 1483 1483 1484 1485 1487 1489 1492 1495 1497 1500 1503 1505 1507 1509 1511 1513 1515 1516 1518 1519 1521 1522 1523 1524 1524 1525 1525 1525 1525 1525 1525 1525 1525 1524 1524 1523 1523 1523
1473 1481 1493 1510 1515 1517 1523 1514 1478 1479 1480 1480 1482 1484 1486 1487 1489 1492 1494 1497 1500 1502 1503 1505 1507 1509 1511 1513 1515 1516 1518 1519 1520 1521 1521 1522 1522 1523 1523 1523 1523 1523 1523 1523 1523 1522 1522 1521 1520